DW8201 Weather Reports


Display with metric or nautical units.
time (UTC)temp
F
wind
direction
speed
MPH
gust
MPH
rain 1hr
in
rain 24hr
in
rain mn
in
humidity
%
barometer
mb
20260905172859 65 307 3.0 7.0 0.00 0.00 0.00 69 1024.0
20260905172355 65 282 4.0 9.0 0.00 0.00 0.00 69 1023.9
20260905172349 65 309 3.0 9.0 0.00 0.00 0.00 69 1023.9
20260905171328 65 313 4.0 10.0 0.00 0.00 0.00 68 1023.9
20260905170822 65 312 4.0 10.0 0.00 0.00 0.00 68 1023.8
20260905170313 66 319 4.0 13.0 0.00 0.00 0.00 68 1023.8
20260905165804 66 32 4.0 13.0 0.00 0.00 0.00 67 1023.6
20260905165254 66 302 5.0 14.0 0.00 0.00 0.00 67 1023.7
20260905164848 67 303 5.0 14.0 0.00 0.00 0.00 66 1023.6
20260905164339 67 295 4.0 10.0 0.00 0.00 0.00 66 1023.5
20260905163841 67 285 4.0 13.0 0.00 0.00 0.00 66 1023.5
20260905163324 67 310 5.0 13.0 0.00 0.00 0.00 65 1023.4
20260905162815 67 309 5.0 13.0 0.00 0.00 0.00 65 1023.4
20260905162306 67 297 3.0 13.0 0.00 0.00 0.00 65 1023.2
20260905161801 67 333 3.0 11.0 0.00 0.00 0.00 66 1023.1
20260905161252 67 292 4.0 11.0 0.00 0.01 0.00 66 1023.1
20260905160743 67 274 5.0 14.0 0.00 0.01 0.00 66 1023.1
20260905160236 67 302 5.0 16.0 0.00 0.01 0.00 65 1023.1
20260905155829 68 328 4.0 16.0 0.00 0.01 0.00 65 1023.0
20260905155319 68 285 5.0 13.0 0.00 0.01 0.00 66 1023.0
20260905154810 68 347 6.0 15.0 0.00 0.01 0.00 66 1022.9
20260905154303 68 326 6.0 15.0 0.00 0.01 0.00 66 1022.8
20260905153751 68 283 5.0 12.0 0.00 0.01 0.00 66 1022.8
20260905153244 68 316 4.0 14.0 0.00 0.01 0.00 67 1022.7
20260905152736 68 27 4.0 14.0 0.00 0.01 0.00 66 1022.7
20260905152228 68 298 4.0 11.0 0.00 0.02 0.00 65 1022.7
20260905151719 68 314 4.0 11.0 0.00 0.02 0.00 67 1022.6
20260905151310 67 21 5.0 11.0 0.00 0.02 0.00 67 1022.6
20260905150802 68 330 5.0 12.0 0.00 0.02 0.00 68 1022.6
20260905150255 68 304 4.0 12.0 0.00 0.02 0.00 66 1022.5
20260905145744 68 1 2.0 10.0 0.00 0.03 0.00 67 1022.5
20260905145235 68 316 2.0 7.0 0.00 0.05 0.00 67 1022.4
20260905144728 68 333 3.0 16.0 0.00 0.05 0.00 67 1022.4
20260905144222 67 270 3.0 12.0 0.00 0.06 0.00 67 1022.4
20260905144218 68 293 3.0 16.0 0.00 0.06 0.00 66 1022.4
20260905143813 68 295 3.0 12.0 0.00 0.06 0.00 68 1022.4
20260905142754 67 131 3.0 12.0 0.00 0.06 0.00 67 1022.4
20260905142243 67 297 3.0 10.0 0.00 0.06 0.00 67 1022.3
20260905141733 67 32 3.0 10.0 0.00 0.06 0.00 66 1022.3
20260905141223 67 296 4.0 9.0 0.00 0.06 0.00 68 1022.3
20260905140718 67 328 4.0 10.0 0.00 0.06 0.00 67 1022.2
20260905140209 68 6 4.0 12.0 0.00 0.06 0.00 66 1022.2
20260905135710 68 34 4.0 12.0 0.00 0.06 0.00 66 1022.0
20260905135259 69 291 3.0 11.0 0.00 0.07 0.00 65 1021.9
20260905135146 69 312 3.0 7.0 0.00 0.09 0.00 64 1021.9
20260905134231 69 229 2.0 7.0 0.00 0.09 0.00 64 1021.9
20260905133727 69 192 3.0 8.0 0.00 0.09 0.00 62 1021.8
20260905133722 69 27 2.0 7.0 0.00 0.09 0.00 64 1021.8
20260905132713 70 289 2.0 8.0 0.00 0.09 0.00 63 1021.8
20260905132706 70 185 3.0 9.0 0.00 0.10 0.00 62 1021.7
20260905131758 70 185 3.0 9.0 0.00 0.11 0.00 63 1021.7
20260905131254 70 191 3.0 14.0 0.00 0.11 0.00 63 1021.7
20260905130746 70 269 4.0 17.0 0.00 0.11 0.00 63 1021.7
20260905130226 70 265 4.0 17.0 0.00 0.11 0.00 62 1021.5
20260905125715 70 206 3.0 10.0 0.00 0.11 0.00 63 1021.6
20260905125204 70 349 3.0 9.0 0.00 0.11 0.00 63 1021.6
20260905124704 69 253 4.0 11.0 0.00 0.11 0.00 63 1021.5
20260905124256 70 268 4.0 11.0 0.00 0.11 0.00 63 1021.5
20260905123751 70 124 3.0 13.0 0.00 0.11 0.00 64 1021.5
20260905123243 69 255 3.0 13.0 0.00 0.11 0.00 65 1021.4
20260905122733 69 301 2.0 9.0 0.00 0.11 0.00 66 1021.5
20260905122225 69 237 3.0 12.0 0.00 0.11 0.00 65 1021.4
20260905121707 70 225 3.0 12.0 0.00 0.11 0.00 65 1021.4
20260905121200 70 285 3.0 12.0 0.00 0.11 0.00 66 1021.4
20260905120659 70 343 3.0 12.0 0.00 0.11 0.00 66 1021.3
20260905120251 70 278 4.0 12.0 0.00 0.11 0.00 67 1021.3
20260905120144 69 236 5.0 15.0 0.00 0.11 0.00 69 1021.2
20260905115231 68 149 4.0 15.0 0.00 0.11 0.00 69 1021.2
20260905114726 68 334 3.0 11.0 0.00 0.11 0.00 67 1021.2
20260905114216 69 6 4.0 11.0 0.00 0.11 0.00 69 1021.2
20260905113709 69 314 4.0 11.0 0.00 0.11 0.00 70 1021.1
20260905113558 69 215 4.0 10.0 0.00 0.11 0.00 70 1020.9
20260905112654 69 22 5.0 10.0 0.00 0.11 0.00 67 1020.9
20260905112640 69 339 4.0 10.0 0.00 0.11 0.00 68 1021.0
20260905111735 69 170 4.0 9.0 0.00 0.11 0.00 69 1020.9
20260905111625 69 252 3.0 10.0 0.00 0.11 0.00 70 1020.9
20260905110717 68 239 3.0 10.0 0.00 0.11 0.00 72 1021.0
20260905110209 67 227 2.0 9.0 0.00 0.11 0.00 70 1021.1
20260905105659 68 286 3.0 10.0 0.00 0.11 0.00 70 1021.0
20260905105250 68 298 4.0 10.0 0.00 0.11 0.00 69 1021.0
20260905104742 68 231 3.0 10.0 0.00 0.11 0.00 71 1020.9
20260905104233 67 191 3.0 10.0 0.00 0.11 0.00 70 1020.8
20260905103726 67 53 2.0 7.0 0.00 0.11 0.00 71 1020.8
20260905103618 67 144 3.0 16.0 0.00 0.11 0.00 71 1020.9
20260905102709 68 193 4.0 16.0 0.00 0.11 0.00 70 1020.8
20260905102159 67 295 3.0 11.0 0.00 0.11 0.00 74 1020.7
20260905101650 67 303 4.0 14.0 0.00 0.11 0.00 73 1020.7
20260905101242 67 276 4.0 14.0 0.00 0.11 0.00 72 1020.7
20260905100736 67 283 3.0 12.0 0.00 0.11 0.00 72 1020.7
20260905100626 67 215 4.0 11.0 0.00 0.11 0.00 74 1020.7
20260905095715 67 220 3.0 11.0 0.00 0.11 0.00 74 1020.6
20260905095209 67 255 3.0 10.0 0.00 0.11 0.00 74 1020.6
20260905094659 67 280 4.0 11.0 0.00 0.11 0.00 74 1020.6
20260905094546 67 268 4.0 11.0 0.00 0.11 0.00 74 1020.6
20260905093639 66 280 4.0 13.0 0.00 0.11 0.00 76 1020.5
20260905093228 66 219 5.0 14.0 0.00 0.11 0.00 77 1020.5
20260905092722 66 231 5.0 14.0 0.00 0.11 0.00 77 1020.4
20260905092212 66 185 6.0 14.0 0.00 0.11 0.00 78 1020.3
20260905091702 65 176 5.0 16.0 0.00 0.11 0.00 78 1020.3
20260905091154 65 183 5.0 16.0 0.00 0.11 0.00 78 1020.2
20260905090647 65 226 4.0 13.0 0.00 0.11 0.00 79 1020.1
20260905090150 65 231 3.0 10.0 0.00 0.11 0.00 81 1020.2
20260905085635 65 210 3.0 10.0 0.00 0.11 0.00 81 1020.1
20260905085226 64 216 3.0 10.0 0.00 0.11 0.00 82 1020.1
20260905084717 64 133 3.0 10.0 0.00 0.11 0.00 82 1020.1
20260905084208 64 220 3.0 9.0 0.00 0.11 0.00 82 1020.1
20260905083657 63 188 3.0 9.0 0.00 0.11 0.00 84 1020.1
20260905083149 63 241 4.0 8.0 0.00 0.11 0.00 84 1020.0
20260905082645 62 231 4.0 12.0 0.00 0.11 0.00 85 1020.0
20260905082533 62 333 4.0 12.0 0.00 0.11 0.00 84 1019.9
20260905081630 62 235 3.0 8.0 0.00 0.11 0.00 85 1019.8
20260905081222 62 226 3.0 8.0 0.00 0.11 0.00 86 1019.8
20260905080713 62 218 3.0 11.0 0.00 0.11 0.00 85 1019.7
20260905080207 61 213 4.0 11.0 0.00 0.11 0.00 87 1019.6
20260905075659 61 209 3.0 9.0 0.00 0.11 0.00 87 1019.6
20260905075150 61 257 4.0 8.0 0.00 0.11 0.00 88 1019.6
20260905074943 60 234 4.0 9.0 0.00 0.11 0.00 88 1019.5
20260905074534 60 180 3.0 9.0 0.00 0.11 0.00 88 1019.5
20260905073629 60 200 4.0 8.0 0.00 0.11 0.00 88 1019.4
20260905073124 60 272 4.0 10.0 0.00 0.11 0.00 88 1019.3
20260905072718 60 245 4.0 10.0 0.00 0.11 0.00 89 1019.3
20260905072209 59 224 4.0 9.0 0.00 0.11 0.00 89 1019.1
20260905071703 59 223 4.0 9.0 0.00 0.11 0.00 89 1019.1
20260905071153 59 161 4.0 10.0 0.00 0.11 0.00 90 1019.0
20260905070646 59 195 3.0 10.0 0.00 0.11 0.00 91 1019.0
20260905070534 58 270 2.0 7.0 0.00 0.11 0.00 91 1019.0
20260905065631 58 183 2.0 7.0 0.00 0.11 0.00 91 1018.9
20260905065123 58 270 3.0 7.0 0.00 0.11 0.00 92 1018.9
20260905064617 58 203 2.0 8.0 0.00 0.11 0.00 92 1018.9
20260905064209 57 173 2.0 8.0 0.00 0.11 0.00 92 1018.8
20260905063703 57 245 3.0 7.0 0.00 0.11 0.00 93 1018.8
20260905063155 57 169 3.0 7.0 0.00 0.11 0.00 93 1018.8
20260905062947 57 258 2.0 9.0 0.00 0.11 0.00 93 1018.7
20260905062138 57 228 2.0 9.0 0.00 0.11 0.00 93 1018.6
20260905061933 56 208 2.0 6.0 0.00 0.11 0.00 93 1018.5
20260905061126 56 198 3.0 6.0 0.00 0.11 0.00 93 1018.5
20260905060616 56 138 3.0 6.0 0.00 0.11 0.00 94 1018.4
20260905060209 56 214 3.0 7.0 0.00 0.11 0.00 94 1018.3
20260905055704 56 190 3.0 7.0 0.00 0.11 0.00 94 1018.2
20260905055155 56 187 3.0 6.0 0.00 0.11 0.00 94 1018.2
20260905054650 56 205 3.0 7.0 0.00 0.11 0.00 94 1018.2
20260905054441 56 218 3.0 7.0 0.00 0.11 0.00 94 1018.1
20260905053633 56 203 3.0 7.0 0.00 0.11 0.00 94 1018.1
20260905053425 56 214 2.0 6.0 0.00 0.11 0.00 94 1018.0
20260905052619 56 228 3.0 6.0 0.00 0.11 0.00 94 1018.0
20260905052111 56 206 3.0 7.0 0.00 0.11 0.00 94 1017.9
20260905051606 56 189 3.0 7.0 0.00 0.11 0.00 94 1017.8
20260905051157 56 201 3.0 5.0 0.00 0.11 0.00 94 1017.8
20260905050651 56 201 3.0 5.0 0.00 0.11 0.00 94 1017.7
20260905050540 56 208 2.0 5.0 0.00 0.11 0.00 93 1017.7
20260905045637 56 257 2.0 5.0 0.00 0.11 0.00 93 1017.7
20260905045128 56 216 3.0 5.0 0.00 0.11 0.00 93 1017.6
20260905044619 56 192 2.0 5.0 0.00 0.11 0.00 93 1017.6
20260905044111 56 222 2.0 5.0 0.00 0.11 0.00 93 1017.5
20260905043608 56 230 2.0 7.0 0.00 0.11 0.00 93 1017.4
20260905043100 56 215 2.0 7.0 0.00 0.11 0.00 93 1017.3
20260905042650 56 232 2.0 5.0 0.00 0.11 0.00 93 1017.3
20260905042145 56 237 2.0 7.0 0.00 0.11 0.00 93 1017.4
20260905041936 56 244 2.0 7.0 0.00 0.11 0.00 93 1017.3
20260905041129 56 228 2.0 7.0 0.00 0.11 0.00 93 1017.3
20260905040620 56 216 2.0 7.0 0.00 0.11 0.00 93 1017.3
20260905040128 56 218 2.0 7.0 0.00 0.11 0.00 93 1017.3
20260905035606 56 216 2.0 5.0 0.00 0.11 0.00 93 1017.1
20260905035456 56 178 2.0 5.0 0.00 0.11 0.00 93 1017.1
20260905034652 56 217 2.0 5.0 0.00 0.11 0.00 93 1017.0
20260905034146 56 174 1.0 5.0 0.00 0.11 0.00 93 1017.1
20260905033938 56 208 2.0 6.0 0.00 0.11 0.00 93 1017.0
20260905033129 56 180 2.0 6.0 0.00 0.11 0.00 93 1017.0
20260905032623 56 198 2.0 5.0 0.00 0.11 0.00 93 1016.9
20260905032114 56 200 2.0 7.0 0.00 0.11 0.00 93 1016.8
20260905031605 56 201 3.0 7.0 0.00 0.11 0.00 93 1016.8
20260905031453 56 213 3.0 7.0 0.00 0.11 0.00 93 1016.7
20260905030548 56 201 3.0 6.0 0.00 0.11 0.00 93 1016.7
20260905030152 56 195 3.0 6.0 0.00 0.11 0.00 93 1016.8
20260905025632 56 190 3.0 5.0 0.00 0.11 0.00 93 1016.7
20260905025125 56 193 2.0 5.0 0.00 0.11 0.00 93 1016.7
20260905024615 56 191 2.0 5.0 0.00 0.11 0.00 93 1016.7
20260905024107 56 174 1.0 5.0 0.00 0.11 0.00 93 1016.7
20260905023557 56 201 1.0 4.0 0.00 0.11 0.00 93 1016.7
20260905023049 56 214 2.0 4.0 0.00 0.11 0.00 93 1016.6
20260905022838 57 203 1.0 4.0 0.00 0.11 0.00 93 1016.6
20260905022638 57 199 2.0 4.0 0.00 0.11 0.00 93 1016.6
20260905021626 57 226 1.0 4.0 0.00 0.11 0.00 93 1016.5
20260905021119 57 216 1.0 4.0 0.00 0.11 0.00 93 1016.5
20260905020608 57 198 2.0 5.0 0.00 0.11 0.00 93 1016.5
20260905020207 57 228 2.0 5.0 0.00 0.11 0.00 93 1016.5
20260905015645 57 205 2.0 5.0 0.00 0.11 0.00 93 1016.5
20260905015140 57 197 2.0 4.0 0.00 0.11 0.00 93 1016.5
20260905014728 57 196 2.0 4.0 0.00 0.11 0.00 93 1016.5
20260905014221 57 222 2.0 6.0 0.00 0.11 0.00 94 1016.4
20260905013729 57 225 2.0 6.0 0.00 0.11 0.00 94 1016.4
20260905013207 57 199 2.0 5.0 0.00 0.11 0.00 94 1016.2
20260905012702 57 195 2.0 4.0 0.00 0.11 0.00 94 1016.2
20260905012153 57 198 2.0 5.0 0.00 0.11 0.00 94 1016.3
20260905011954 57 218 2.0 5.0 0.00 0.11 0.00 94 1016.3
20260905011150 58 193 3.0 6.0 0.00 0.11 0.00 94 1016.2
20260905010724 58 189 3.0 6.0 0.00 0.11 0.00 94 1016.2
20260905010222 58 205 2.0 5.0 0.00 0.11 0.00 94 1016.2
20260905005713 58 193 3.0 5.0 0.00 0.11 0.00 94 1016.2
20260905005207 58 208 2.0 5.0 0.00 0.11 0.00 93 1016.2
20260905004656 58 236 2.0 5.0 0.00 0.11 0.00 93 1016.2
20260905004148 58 201 2.0 5.0 0.00 0.11 0.00 93 1016.2
20260905003638 58 216 2.0 5.0 0.00 0.11 0.00 93 1016.2
20260905003131 58 194 2.0 5.0 0.00 0.11 0.00 93 1016.1
20260905002719 58 195 2.0 4.0 0.00 0.11 0.00 93 1016.1
20260905002210 58 196 2.0 4.0 0.00 0.11 0.00 93 1016.1
20260905001708 58 190 2.0 3.0 0.00 0.11 0.00 93 1016.1
20260905001510 58 213 1.0 3.0 0.00 0.11 0.00 93 1016.1
20260905000658 58 263 1.0 3.0 0.00 0.11 0.00 93 1016.1
20260905000149 58 193 1.0 3.0 0.00 0.11 0.00 92 1016.0
20260904235950 58 193 1.0 3.0 0.00 0.11 0.00 92 1016.0
20260904235133 58 205 0.0 3.0 0.00 0.11 0.00 92 1016.0
20260904234624 58 201 0.0 3.0 0.00 0.11 0.00 92 1015.9
20260904234215 58 216 1.0 3.0 0.00 0.11 0.00 93 1016.0
20260904233706 59 206 1.0 3.0 0.00 0.11 0.00 93 1016.0
20260904233200 59 193 1.0 3.0 0.00 0.11 0.00 93 1016.0
20260904232652 59 201 0.0 2.0 0.00 0.11 0.00 92 1015.8
20260904232146 59 212 0.0 1.0 0.00 0.11 0.00 92 1015.7
20260904231643 59 216 0.0 2.0 0.00 0.11 0.00 93 1015.8
20260904231139 59 222 1.0 3.0 0.00 0.11 0.00 93 1015.8
20260904230633 59 206 1.0 3.0 0.00 0.11 0.00 93 1015.7
20260904230137 60 203 0.0 3.0 0.00 0.11 0.00 93 1015.7
20260904225926 60 202 1.0 4.0 0.00 0.11 0.00 93 1015.7
20260904225204 60 205 0.0 4.0 0.00 0.11 0.00 93 1015.7
20260904224711 60 199 0.0 3.0 0.00 0.11 0.00 92 1015.7
20260904224156 60 207 0.0 2.0 0.00 0.11 0.00 92 1015.6
20260904224151 60 216 0.0 2.0 0.00 0.11 0.00 92 1015.8
20260904223647 60 227 0.0 2.0 0.00 0.11 0.00 92 1015.7
20260904223346 61 201 0.0 2.0 0.00 0.11 0.00 92 1015.5
20260904222131 61 237 0.0 2.0 0.00 0.11 0.00 93 1015.5
20260904221627 61 260 0.0 3.0 0.00 0.11 0.00 93 1015.5
20260904221124 61 189 0.0 4.0 0.00 0.11 0.00 93 1015.4
20260904220616 61 192 0.0 2.0 0.00 0.11 0.00 93 1015.3
20260904220113 62 202 0.0 2.0 0.00 0.11 0.00 93 1015.3
20260904215602 62 216 0.0 3.0 0.00 0.11 0.11 93 1015.2
20260904215152 62 198 0.0 3.0 0.00 0.11 0.11 93 1015.2
20260904214644 62 249 0.0 3.0 0.00 0.11 0.11 93 1015.1
20260904214136 62 285 0.0 2.0 0.00 0.11 0.11 93 1015.1
20260904213628 62 206 1.0 3.0 0.00 0.11 0.11 93 1015.0
20260904213128 62 198 0.0 3.0 0.00 0.11 0.11 93 1014.9
20260904213123 62 201 1.0 3.0 0.00 0.11 0.11 93 1014.9
20260904212105 62 236 0.0 3.0 0.00 0.11 0.11 93 1014.9
20260904211600 62 226 0.0 0.0 0.00 0.11 0.11 93 1014.9
20260904211108 62 229 0.0 3.0 0.00 0.11 0.11 93 1015.0
20260904210856 62 210 0.0 3.0 0.00 0.11 0.11 93 1015.0
20260904210134 62 220 0.0 3.0 0.00 0.11 0.11 93 1014.9
20260904205627 62 204 0.0 5.0 0.00 0.11 0.11 93 1014.8
20260904205121 62 207 1.0 5.0 0.00 0.11 0.11 93 1014.8
20260904204613 62 216 1.0 4.0 0.00 0.11 0.11 93 1014.7
20260904204110 62 206 0.0 0.0 0.00 0.11 0.11 93 1014.7
20260904204104 62 204 0.0 2.0 0.00 0.11 0.11 93 1014.7
20260904203050 62 206 0.0 0.0 0.00 0.11 0.11 93 1014.5
20260904202548 62 206 0.0 0.0 0.00 0.11 0.11 93 1014.4
20260904202042 63 206 0.0 0.0 0.00 0.11 0.11 93 1014.3
20260904201627 63 206 0.0 0.0 0.00 0.11 0.11 93 1014.4
20260904201124 63 206 0.0 0.0 0.00 0.11 0.11 93 1014.4
20260904200620 63 193 0.0 0.0 0.00 0.11 0.11 92 1014.4
20260904200614 63 206 0.0 0.0 0.00 0.11 0.11 92 1014.4
20260904195601 63 221 0.0 0.0 0.00 0.11 0.11 92 1014.4
20260904195050 63 271 0.0 5.0 0.00 0.11 0.11 92 1014.2
20260904194552 63 293 0.0 5.0 0.00 0.11 0.11 92 1014.1
20260904194545 63 247 0.0 5.0 0.00 0.11 0.11 92 1014.1
20260904193536 63 289 1.0 4.0 0.00 0.11 0.11 92 1014.0
20260904193028 63 295 0.0 4.0 0.00 0.11 0.11 92 1013.9
20260904192616 63 195 0.0 4.0 0.00 0.11 0.11 93 1013.8
20260904192108 63 322 0.0 2.0 0.00 0.11 0.11 93 1013.8
20260904191600 63 301 0.0 2.0 0.00 0.11 0.11 93 1013.9
20260904191056 63 255 0.0 3.0 0.00 0.11 0.11 93 1014.0
20260904190550 63 239 0.0 4.0 0.00 0.11 0.11 93 1014.0
20260904190054 63 278 1.0 4.0 0.00 0.11 0.11 93 1013.9
20260904185537 63 242 1.0 4.0 0.00 0.11 0.11 93 1013.8
20260904185028 63 233 1.0 4.0 0.00 0.11 0.11 93 1013.7
20260904184523 63 212 1.0 4.0 0.00 0.11 0.11 93 1013.5
20260904184021 63 275 1.0 6.0 0.00 0.11 0.11 93 1013.5
20260904183612 63 323 1.0 5.0 0.00 0.11 0.11 93 1013.4
20260904183606 63 168 1.0 6.0 0.00 0.11 0.11 93 1013.3
20260904183056 63 330 1.0 4.0 0.00 0.11 0.11 93 1013.2
20260904182749 63 242 1.0 5.0 0.00 0.11 0.11 93 1013.1
20260904181529 63 245 1.0 4.0 0.00 0.11 0.11 93 1013.1
20260904181024 63 234 1.0 4.0 0.00 0.11 0.11 93 1013.0
20260904180514 63 280 1.0 5.0 0.00 0.11 0.11 93 1012.9
20260904180009 63 225 1.0 5.0 0.00 0.11 0.11 93 1012.9
20260904175556 63 211 1.0 6.0 0.00 0.11 0.11 93 1012.9
20260904175045 63 257 1.0 6.0 0.00 0.11 0.11 93 1012.8
20260904174538 63 147 1.0 5.0 0.00 0.11 0.11 93 1012.6
20260904174031 63 54 1.0 4.0 0.00 0.11 0.11 93 1012.6
20260904173524 63 235 1.0 5.0 0.00 0.11 0.11 93 1012.5